{"data":{"norad_id":64085,"epoch":"2026-09-20T04:09:26.435232Z","epoch_age_seconds":171752,"freshness":"FRESH","line1":"1 64085U 25107X   26263.17322263  .00010457  00000+0  38887-3 0  9996","line2":"2 64085  43.0019 183.2524 0001236 265.9474  94.1236 15.27591029 75846","mean_motion":15.27591029,"eccentricity":0.0001236,"inclination_deg":43.0019,"raan_deg":183.2524,"arg_perigee_deg":265.9474,"mean_anomaly_deg":94.1236,"bstar":0.00038887,"rev_number":7584,"period_min":94.266068120514,"perigee_km":482.16803292506,"apogee_km":483.86410996432,"semimajor_km":6861.1530714447,"source":"CELESTRAK","updated_at":"2026-09-21T09:00:35.225750Z"}}